826  
NZUS99 KIND 291109  
HRRIND  
 
WEATHER ROUNDUP FOR INDIANA AND SURROUNDING STATES  
NATIONAL WEATHER SERVICE INDIANAPOLIS IN  
700 AM EDT MON MAY 29 2017  
   
..INDIANA
 
 
 
CITY SKY/WX TMP DP RH WIND PRES REMARKS  
INDIANAPOLIS MOCLDY 58 56 93 SW7 29.90R  
EAGLE CREEK CLEAR 60 54 80 SW6 29.89R  
ZIONSVILLE CLEAR 56 53 89 SW5 29.89R  
FISHERS PTCLDY 57 57 100 SW3 29.90  
MOUNT COMFORT N/A N/A N/A N/A MISG N/A  
GREENWOOD CLEAR 59 56 90 SW3 29.90R  
SHELBYVILLE CLEAR 60 56 86 S6 29.90R  

 
 
CITY SKY/WX TMP DP RH WIND PRES REMARKS  
LAFAYETTE PTCLDY 56 55 97 CALM 29.85R  
KOKOMO MOCLDY 60 54 80 SW8 29.86R  
FRANKFORT CLEAR 60 55 85 SW5 29.89R  
CRAWFORDSVILLE CLEAR -21 -21 100 SW7 29.88R WCI -39  
MUNCIE CLEAR 62 57 83 SW7 29.88R  
GREENCASTLE CLEAR 55 54 94 CALM 29.90R  
TERRE HAUTE PTCLDY 60 54 80 SW6 29.90R  
BLOOMINGTON CLEAR 61 55 81 SW8 29.92R  
CAMP ATTERBURY CLEAR 59 57 94 SW7 29.91R  
COLUMBUS CLEAR 57 55 94 S3 29.91  
BEDFORD CLOUDY 57 55 94 S3 29.93R  
SEYMOUR PTCLDY 63 61 94 SW3 29.93R  
NORTH VERNON CLOUDY 61 59 94 S5 29.93R FOG  

 
 
CITY SKY/WX TMP DP RH WIND PRES REMARKS  
GARY PTCLDY 59 50 72 SW7 29.80R  
VALPARAISO CLEAR 59 53 80 SW7 29.82R  
LA PORTE CLEAR 58 52 81 SW5 29.82R  
MICHIGAN CITY CLEAR 57 52 82 S5 29.80R  
SOUTH BEND MOCLDY 57 53 86 CALM 29.80S  
ELKHART PTCLDY 57 52 82 CALM 29.80  
GOSHEN CLOUDY 58 52 80 SW5 29.81R  
ANGOLA CLOUDY 57 46 67 CALM 29.82R  
KENDALLVILLE CLOUDY 58 55 88 SW9 29.83R  
AUBURN MOCLDY 59 54 82 SW5 29.84R  
RENSSELAER CLEAR 59 52 77 SW7 29.83R  
KNOX CLEAR 55 45 67 SW7 29.81R  
ROCHESTER CLOUDY 61 55 82 S6 29.83R  
WARSAW CLOUDY 57 54 88 CALM 29.83R  
FORT WAYNE PTCLDY 56 54 93 SW6 29.84R  
MONTICELLO CLEAR 57 54 88 SW6 29.84R  
LOGANSPORT PTCLDY 59 54 82 SW8 29.85R  
PERU/GRISSOM CLEAR 58 56 95 SW8 29.84R  
HUNTINGTON PTCLDY 57 56 96 S3 29.84R  
MARION CLOUDY 57 54 88 S8 29.88R  
RICHMOND CLEAR 57 57 100 SW6 29.92R FOG  
WASHINGTON CLOUDY 63 56 78 SW5 29.92R  
MADISON PTCLDY 61 59 94 CALM 29.96R  
HUNTINGBURG CLOUDY 63 62 97 S5 29.94R FOG  
EVANSVILLE MOCLDY 64 61 90 SW3 29.94R  

 
   
..ILLINOIS
 
 
 
CITY SKY/WX TMP DP RH WIND PRES REMARKS  
CHICAGO PTCLDY 59 50 72 W8 29.78R  
MOLINE CLOUDY 58 48 69 W5 29.85R  
ROCKFORD LGT RAIN 58 50 75 W8 29.82R  
KANKAKEE CLEAR 58 51 78 CALM 29.84R  
PEORIA CLEAR 56 50 80 CALM 29.86R  
BLOOMINGTON CLEAR 58 52 80 W9 29.88R  
CHAMPAIGN CLEAR 59 53 80 SW6 29.88R  
RANTOUL CLEAR 62 55 79 W5 29.87R  
DANVILLE CLEAR 60 54 82 SW9 29.85R  
QUINCY CLEAR 54 51 90 S8 29.88F  
SPRINGFIELD CLEAR 59 55 87 SW3 29.90R  
DECATUR CLEAR 62 55 77 W8 29.89R  
MATTOON CLEAR 62 56 80 SW7 29.89R  
PARIS CLEAR 60 55 85 SW9 29.90R  
EFFINGHAM PTCLDY 59 58 97 SW3 29.93R  
ROBINSON MOCLDY 61 56 83 SW7 29.92R  
OLNEY CLEAR 61 61 100 CALM 29.93R  
LAWRENCEVILLE CLOUDY 61 57 87 S6 29.93R  
MOUNT VERNON FOG 54 54 100 CALM 29.93S VSB 1/4  
FAIRFIELD CLEAR 58 58 100 CALM 29.92S  
MOUNT CARMEL CLEAR 60 55 84 CALM 29.93R  
CARMI MOCLDY 60 59 94 CALM 29.93S  

 
   
..KENTUCKY
 
 
 
CITY SKY/WX TMP DP RH WIND PRES REMARKS  
LOUISVILLE CLOUDY 65 63 93 S3 29.94R  
PADUCAH CLOUDY 62 60 93 CALM 29.95R  
OWENSBORO MOCLDY 63 62 97 S3 29.95R  
FORT KNOX CLOUDY 62 62 100 SW5 29.94S  
LEXINGTON CLOUDY 64 62 93 W8 29.97R FOG  
BOWLING GREEN CLOUDY 64 64 100 CALM 29.99R  
JACKSON CLOUDY 64 62 93 VRB3 29.97R  

 
   
..OHIO
 
 
 
CITY SKY/WX TMP DP RH WIND PRES REMARKS  
CINCINNATI FOG 62 62 100 SW6 29.93R VSB<1/4  
DAYTON PTCLDY 61 59 93 SW8 29.91R  
TOLEDO CLEAR 57 57 100 SW6 29.81R  
DEFIANCE CLEAR 55 55 100 SW5 29.83R FOG  
FINDLAY CLEAR 61 57 87 SW6 29.83R  
LIMA CLEAR 60 58 92 SW9 29.86R  
WRIGHT-PAT AFB PTCLDY 60 60 100 S5 29.90R  
COLUMBUS PTCLDY 61 61 100 S3 29.88R  
CLEVELAND PTCLDY 61 58 90 SW7 29.83R  

 
   
..MICHIGAN
 
 
 
CITY SKY/WX TMP DP RH WIND PRES REMARKS  
DETROIT PTCLDY 58 55 90 SW7 29.79R  
GRAND RAPIDS PTCLDY 56 50 80 S5 29.76R  
LANSING CLEAR 56 50 80 SW6 29.78R  
KALAMAZOO CLEAR 56 49 77 SW6 29.80R  
BATTLE CREEK CLEAR 55 52 89 SW7 29.79R  
MARSHALL CLEAR 57 53 86 SW3 29.79R  
JACKSON CLEAR 56 52 86 SW8 29.80R  
BENTON HARBOR CLEAR 52 49 89 E3 29.78R  
STURGIS CLOUDY 56 54 94 CALM 29.81R  
COLDWATER MOCLDY 57 55 90 CALM 29.81R  
HILLSDALE CLEAR 55 50 82 W5 29.81R  

 
   
..OTHER LOCATIONS
 
 
 
CITY SKY/WX TMP DP RH WIND PRES REMARKS  
SAINT LOUIS MO MOCLDY 64 55 72 W7 29.92S  
CAPE GIRARDEAU CLOUDY 59 56 89 CALM 29.95S  
MILWAUKEE WI PTCLDY 60 48 64 SW10 29.75R  
NASHVILLE TN CLOUDY 66 64 93 CALM 29.99R  

 
 
 
 
CLICK HERE TO GO TO PREVIOUS BULLETINS.

The Nexlab IN Page Main Text Page